Time,TemperatureF,DewpointF,PressureIn,WindDirection,WindDirectionDegrees,WindSpeedMPH,WindSpeedGustMPH,Humidity,HourlyPrecipIn,Conditions,Clouds,dailyrainin,SoftwareType,DateUTC
2013-03-26 00:00:00,28.5,25.4,29.78,WNW,292,0.0,0.0,88,0.00,,,0.00,LWC V2.11 B50,2013-03-26 04:00:00,
2013-03-26 00:01:00,28.5,25.4,29.78,WNW,292,0.0,0.0,88,0.00,,,0.00,LWC V2.11 B50,2013-03-26 04:01:00,
2013-03-26 00:03:00,28.2,25.1,29.79,WNW,293,0.0,0.0,88,0.00,,,0.00,LWC V2.11 B50,2013-03-26 04:03:00,
2013-03-26 00:08:00,27.9,25.1,29.79,WNW,293,0.0,0.0,89,0.00,,,0.00,LWC V2.11 B50,2013-03-26 04:08:00,
2013-03-26 00:13:00,27.8,25.3,29.78,WNW,293,0.0,0.0,90,0.00,,,0.00,LWC V2.11 B50,2013-03-26 04:13:00,
2013-03-26 00:18:00,28.0,25.5,29.78,WNW,293,0.0,0.0,90,0.00,,,0.00,LWC V2.11 B50,2013-03-26 04:18:00,
2013-03-26 00:23:00,28.0,25.5,29.78,WNW,293,0.0,0.0,90,0.00,,,0.00,LWC V2.11 B50,2013-03-26 04:23:00,
2013-03-26 00:28:00,28.1,25.6,29.79,WNW,293,0.0,0.0,90,0.00,,,0.00,LWC V2.11 B50,2013-03-26 04:28:00,
2013-03-26 00:33:00,28.4,25.8,29.79,WNW,293,0.0,0.0,90,0.00,,,0.00,LWC V2.11 B50,2013-03-26 04:33:00,
2013-03-26 00:38:00,28.7,26.1,29.79,WNW,293,0.0,0.0,90,0.00,,,0.00,LWC V2.11 B50,2013-03-26 04:38:00,
2013-03-26 00:43:00,29.0,26.2,29.79,WNW,292,0.0,0.0,89,0.00,,,0.00,LWC V2.11 B50,2013-03-26 04:43:00,
2013-03-26 00:48:00,29.2,26.4,29.79,WNW,293,0.0,0.0,89,0.00,,,0.00,LWC V2.11 B50,2013-03-26 04:48:00,
2013-03-26 00:53:00,29.4,26.6,29.79,WNW,292,0.0,0.0,89,0.00,,,0.00,LWC V2.11 B50,2013-03-26 04:53:00,
2013-03-26 00:58:00,29.6,26.8,29.80,WNW,293,0.0,0.0,89,0.00,,,0.00,LWC V2.11 B50,2013-03-26 04:58:00,
2013-03-26 01:03:00,29.7,26.9,29.80,WNW,293,0.0,0.0,89,0.00,,,0.00,LWC V2.11 B50,2013-03-26 05:03:00,
2013-03-26 01:08:00,29.8,27.0,29.80,NNW,333,1.0,1.0,89,0.00,,,0.00,LWC V2.11 B50,2013-03-26 05:08:00,
2013-03-26 01:13:00,29.9,27.1,29.80,NNW,333,0.0,0.0,89,0.00,,,0.00,LWC V2.11 B50,2013-03-26 05:13:00,
2013-03-26 01:15:00,29.9,27.1,29.80,NNW,333,0.0,0.0,89,0.00,,,0.00,LWC V2.11 B50,2013-03-26 05:15:00,
2013-03-26 01:20:00,29.9,27.1,29.80,NNW,332,1.0,1.0,89,0.00,,,0.00,LWC V2.11 B50,2013-03-26 05:20:00,
2013-03-26 01:25:00,29.9,27.1,29.80,NNW,332,0.0,0.0,89,0.00,,,0.00,LWC V2.11 B50,2013-03-26 05:25:00,
2013-03-26 01:30:00,30.0,27.2,29.80,WNW,296,0.0,0.0,89,0.00,,,0.00,LWC V2.11 B50,2013-03-26 05:30:00,
2013-03-26 01:35:00,30.0,27.2,29.80,WNW,297,0.0,0.0,89,0.00,,,0.00,LWC V2.11 B50,2013-03-26 05:35:00,
2013-03-26 01:40:00,30.0,27.4,29.81,WNW,293,0.0,1.0,90,0.00,,,0.00,LWC V2.11 B50,2013-03-26 05:40:00,
2013-03-26 01:45:00,30.1,27.5,29.81,WNW,282,0.0,1.0,90,0.00,,,0.00,LWC V2.11 B50,2013-03-26 05:45:00,
2013-03-26 01:50:00,30.2,27.6,29.81,West,278,0.0,2.0,90,0.00,,,0.00,LWC V2.11 B50,2013-03-26 05:50:00,
2013-03-26 01:55:00,30.3,27.7,29.81,West,281,0.0,1.0,90,0.00,,,0.00,LWC V2.11 B50,2013-03-26 05:55:00,
2013-03-26 02:00:00,30.4,27.8,29.81,West,276,0.0,2.0,90,0.00,,,0.00,LWC V2.11 B50,2013-03-26 06:00:00,
2013-03-26 02:05:00,30.4,27.8,29.81,West,279,0.0,0.0,90,0.00,,,0.00,LWC V2.11 B50,2013-03-26 06:05:00,
2013-03-26 02:10:00,30.4,27.8,29.81,NW,312,0.0,0.0,90,0.00,,,0.00,LWC V2.11 B50,2013-03-26 06:10:00,
2013-03-26 02:15:00,30.4,27.8,29.81,NW,312,0.0,1.0,90,0.00,,,0.00,LWC V2.11 B50,2013-03-26 06:15:00,
2013-03-26 02:20:00,30.5,27.9,29.82,West,280,0.0,1.0,90,0.00,,,0.00,LWC V2.11 B50,2013-03-26 06:20:00,
2013-03-26 02:25:00,30.5,27.9,29.82,West,278,0.0,0.0,90,0.00,,,0.00,LWC V2.11 B50,2013-03-26 06:25:00,
2013-03-26 02:30:00,30.5,27.9,29.82,NW,317,0.0,1.0,90,0.00,,,0.00,LWC V2.11 B50,2013-03-26 06:30:00,
2013-03-26 02:35:00,30.6,28.0,29.82,WNW,293,0.0,2.0,90,0.00,,,0.00,LWC V2.11 B50,2013-03-26 06:35:00,
2013-03-26 02:40:00,30.6,28.0,29.82,NW,325,1.0,1.0,90,0.00,,,0.00,LWC V2.11 B50,2013-03-26 06:40:00,
2013-03-26 02:45:00,30.6,28.0,29.82,WNW,300,1.0,1.0,90,0.00,,,0.00,LWC V2.11 B50,2013-03-26 06:45:00,
2013-03-26 02:50:00,30.7,28.1,29.82,NW,305,0.0,0.0,90,0.00,,,0.00,LWC V2.11 B50,2013-03-26 06:50:00,
2013-03-26 02:55:00,30.7,27.9,29.82,NW,309,0.0,0.0,89,0.00,,,0.00,LWC V2.11 B50,2013-03-26 06:55:00,
2013-03-26 03:00:00,30.7,27.9,29.82,WNW,290,0.0,1.0,89,0.00,,,0.00,LWC V2.11 B50,2013-03-26 07:00:00,
2013-03-26 03:05:00,30.8,27.9,29.82,West,277,0.0,1.0,89,0.00,,,0.00,LWC V2.11 B50,2013-03-26 07:05:00,
2013-03-26 03:10:00,30.7,27.9,29.82,West,280,0.0,0.0,89,0.00,,,0.00,LWC V2.11 B50,2013-03-26 07:10:00,
2013-03-26 03:15:00,30.7,27.9,29.82,West,280,0.0,0.0,89,0.00,,,0.00,LWC V2.11 B50,2013-03-26 07:15:00,
2013-03-26 03:20:00,30.8,27.9,29.82,West,276,0.0,1.0,89,0.00,,,0.00,LWC V2.11 B50,2013-03-26 07:20:00,
2013-03-26 03:25:00,30.7,27.6,29.82,WNW,293,0.0,0.0,88,0.00,,,0.00,LWC V2.11 B50,2013-03-26 07:25:00,
2013-03-26 03:30:00,30.6,27.8,29.82,WNW,293,0.0,0.0,89,0.00,,,0.00,LWC V2.11 B50,2013-03-26 07:30:00,
2013-03-26 03:35:00,30.6,27.8,29.82,WNW,293,0.0,0.0,89,0.00,,,0.00,LWC V2.11 B50,2013-03-26 07:35:00,
2013-03-26 03:40:00,30.4,27.6,29.82,WNW,293,0.0,0.0,89,0.00,,,0.00,LWC V2.11 B50,2013-03-26 07:40:00,
2013-03-26 03:45:00,30.3,27.5,29.82,WNW,294,0.0,0.0,89,0.00,,,0.00,LWC V2.11 B50,2013-03-26 07:45:00,
2013-03-26 03:50:00,30.2,27.4,29.82,WNW,294,0.0,0.0,89,0.00,,,0.00,LWC V2.11 B50,2013-03-26 07:50:00,
2013-03-26 03:55:00,30.1,27.3,29.82,WNW,294,0.0,0.0,89,0.00,,,0.00,LWC V2.11 B50,2013-03-26 07:55:00,
2013-03-26 04:00:00,30.0,27.2,29.82,WNW,294,0.0,0.0,89,0.00,,,0.00,LWC V2.11 B50,2013-03-26 08:00:00,
2013-03-26 04:05:00,29.8,27.0,29.82,WNW,293,0.0,0.0,89,0.00,,,0.00,LWC V2.11 B50,2013-03-26 08:05:00,
2013-03-26 04:10:00,29.7,27.1,29.82,WNW,294,0.0,0.0,90,0.00,,,0.00,LWC V2.11 B50,2013-03-26 08:10:00,
2013-03-26 04:15:00,29.6,27.0,29.83,WNW,294,0.0,0.0,90,0.00,,,0.00,LWC V2.11 B50,2013-03-26 08:15:00,
2013-03-26 04:20:00,29.4,26.8,29.82,WNW,294,0.0,0.0,90,0.00,,,0.00,LWC V2.11 B50,2013-03-26 08:20:00,
2013-03-26 04:25:00,29.3,26.7,29.82,SW,215,0.0,0.0,90,0.00,,,0.00,LWC V2.11 B50,2013-03-26 08:25:00,
2013-03-26 04:30:00,29.4,27.1,29.83,SW,215,0.0,0.0,91,0.00,,,0.00,LWC V2.11 B50,2013-03-26 08:30:00,
2013-03-26 04:35:00,29.3,27.0,29.83,SW,215,0.0,0.0,91,0.00,,,0.00,LWC V2.11 B50,2013-03-26 08:35:00,
2013-03-26 04:40:00,29.3,27.0,29.83,SW,216,0.0,0.0,91,0.00,,,0.00,LWC V2.11 B50,2013-03-26 08:40:00,
2013-03-26 04:45:00,29.4,27.1,29.82,SW,216,0.0,0.0,91,0.00,,,0.00,LWC V2.11 B50,2013-03-26 08:45:00,
2013-03-26 04:50:00,29.5,27.2,29.83,SW,215,0.0,0.0,91,0.00,,,0.00,LWC V2.11 B50,2013-03-26 08:50:00,
2013-03-26 04:55:00,29.3,27.0,29.83,SW,216,0.0,0.0,91,0.00,,,0.00,LWC V2.11 B50,2013-03-26 08:55:00,
2013-03-26 05:00:00,29.1,26.8,29.83,SW,215,0.0,0.0,91,0.00,,,0.00,LWC V2.11 B50,2013-03-26 09:00:00,
2013-03-26 05:05:00,29.3,27.0,29.83,SW,215,0.0,0.0,91,0.00,,,0.00,LWC V2.11 B50,2013-03-26 09:05:00,
2013-03-26 05:10:00,29.4,27.1,29.83,SW,225,0.0,0.0,91,0.00,,,0.00,LWC V2.11 B50,2013-03-26 09:10:00,
2013-03-26 05:15:00,29.5,26.9,29.83,SW,225,0.0,0.0,90,0.00,,,0.00,LWC V2.11 B50,2013-03-26 09:15:00,
2013-03-26 05:20:00,29.5,26.9,29.83,WSW,240,0.0,0.0,90,0.00,,,0.00,LWC V2.11 B50,2013-03-26 09:20:00,
2013-03-26 05:25:00,29.6,27.0,29.83,WSW,239,0.0,0.0,90,0.00,,,0.00,LWC V2.11 B50,2013-03-26 09:25:00,
2013-03-26 05:30:00,29.5,26.9,29.84,NW,326,0.0,1.0,90,0.00,,,0.00,LWC V2.11 B50,2013-03-26 09:30:00,
2013-03-26 05:35:00,29.5,26.9,29.84,North,357,0.0,1.0,90,0.00,,,0.00,LWC V2.11 B50,2013-03-26 09:35:00,
2013-03-26 05:40:00,29.6,27.0,29.84,North,357,0.0,0.0,90,0.00,,,0.00,LWC V2.11 B50,2013-03-26 09:40:00,
2013-03-26 05:45:00,29.6,26.8,29.84,North,357,0.0,0.0,89,0.00,,,0.00,LWC V2.11 B50,2013-03-26 09:45:00,
2013-03-26 05:50:00,29.5,26.7,29.84,ESE,114,0.0,1.0,89,0.00,,,0.00,LWC V2.11 B50,2013-03-26 09:50:00,
2013-03-26 05:55:00,29.5,26.7,29.84,ESE,114,0.0,0.0,89,0.00,,,0.00,LWC V2.11 B50,2013-03-26 09:55:00,
2013-03-26 06:00:00,29.3,26.5,29.84,ESE,114,0.0,0.0,89,0.00,,,0.00,LWC V2.11 B50,2013-03-26 10:00:00,
2013-03-26 06:05:00,29.3,26.7,29.84,North,1,0.0,0.0,90,0.00,,,0.00,LWC V2.11 B50,2013-03-26 10:05:00,
2013-03-26 06:10:00,29.4,26.8,29.84,North,1,0.0,0.0,90,0.00,,,0.00,LWC V2.11 B50,2013-03-26 10:10:00,
2013-03-26 06:15:00,29.5,26.9,29.84,North,1,0.0,0.0,90,0.00,,,0.00,LWC V2.11 B50,2013-03-26 10:15:00,
2013-03-26 06:20:00,29.6,27.0,29.85,North,1,0.0,0.0,90,0.00,,,0.00,LWC V2.11 B50,2013-03-26 10:20:00,
2013-03-26 06:25:00,29.6,27.0,29.85,North,1,0.0,0.0,90,0.00,,,0.00,LWC V2.11 B50,2013-03-26 10:25:00,
2013-03-26 06:30:00,29.8,27.2,29.85,West,280,0.0,1.0,90,0.00,,,0.00,LWC V2.11 B50,2013-03-26 10:30:00,
2013-03-26 06:35:00,29.9,27.1,29.85,West,281,0.0,1.0,89,0.00,,,0.00,LWC V2.11 B50,2013-03-26 10:35:00,
2013-03-26 06:40:00,29.9,27.1,29.85,West,281,0.0,0.0,89,0.00,,,0.00,LWC V2.11 B50,2013-03-26 10:40:00,
2013-03-26 06:45:00,29.7,26.9,29.86,NNW,331,0.0,0.0,89,0.00,,,0.00,LWC V2.11 B50,2013-03-26 10:45:00,
2013-03-26 06:50:00,29.6,26.8,29.86,NNW,332,0.0,0.0,89,0.00,,,0.00,LWC V2.11 B50,2013-03-26 10:50:00,
2013-03-26 06:55:00,29.4,26.6,29.86,NNW,330,0.0,0.0,89,0.00,,,0.00,LWC V2.11 B50,2013-03-26 10:55:00,
2013-03-26 07:00:00,29.4,26.8,29.86,NW,315,0.0,1.0,90,0.00,,,0.00,LWC V2.11 B50,2013-03-26 11:00:00,
2013-03-26 07:05:00,29.6,27.0,29.86,NW,315,0.0,0.0,90,0.00,,,0.00,LWC V2.11 B50,2013-03-26 11:05:00,
2013-03-26 07:10:00,29.5,26.9,29.86,NW,314,0.0,0.0,90,0.00,,,0.00,LWC V2.11 B50,2013-03-26 11:10:00,
2013-03-26 07:15:00,29.5,26.9,29.87,NW,308,0.0,0.0,90,0.00,,,0.00,LWC V2.11 B50,2013-03-26 11:15:00,
2013-03-26 07:20:00,29.5,26.9,29.87,NNW,345,0.0,1.0,90,0.00,,,0.00,LWC V2.11 B50,2013-03-26 11:20:00,
2013-03-26 07:25:00,29.6,27.0,29.87,NW,313,0.0,0.0,90,0.00,,,0.00,LWC V2.11 B50,2013-03-26 11:25:00,
2013-03-26 07:30:00,29.7,27.1,29.87,NNW,333,0.0,0.0,90,0.00,,,0.00,LWC V2.11 B50,2013-03-26 11:30:00,
2013-03-26 07:35:00,29.8,27.2,29.88,NNW,336,0.0,1.0,90,0.00,,,0.00,LWC V2.11 B50,2013-03-26 11:35:00,
2013-03-26 07:40:00,29.9,27.3,29.88,WNW,291,0.0,1.0,90,0.00,,,0.00,LWC V2.11 B50,2013-03-26 11:40:00,
2013-03-26 07:45:00,30.1,27.5,29.88,West,260,0.0,0.0,90,0.00,,,0.00,LWC V2.11 B50,2013-03-26 11:45:00,
2013-03-26 07:50:00,30.2,27.6,29.88,West,273,0.0,0.0,90,0.00,,,0.00,LWC V2.11 B50,2013-03-26 11:50:00,
2013-03-26 07:55:00,30.3,27.7,29.89,West,273,0.0,0.0,90,0.00,,,0.00,LWC V2.11 B50,2013-03-26 11:55:00,
2013-03-26 08:00:00,30.4,27.8,29.89,West,273,0.0,0.0,90,0.00,,,0.00,LWC V2.11 B50,2013-03-26 12:00:00,
2013-03-26 08:05:00,30.5,27.9,29.89,West,273,0.0,0.0,90,0.00,,,0.00,LWC V2.11 B50,2013-03-26 12:05:00,
2013-03-26 08:10:00,30.7,28.1,29.89,WNW,288,0.0,0.0,90,0.00,,,0.00,LWC V2.11 B50,2013-03-26 12:10:00,
2013-03-26 08:15:00,30.8,28.2,29.90,NW,326,0.0,2.0,90,0.00,,,0.00,LWC V2.11 B50,2013-03-26 12:15:00,
2013-03-26 08:20:00,31.0,28.4,29.89,NW,326,0.0,1.0,90,0.00,,,0.00,LWC V2.11 B50,2013-03-26 12:20:00,
2013-03-26 08:25:00,31.2,28.3,29.90,NW,323,0.0,0.0,89,0.00,,,0.00,LWC V2.11 B50,2013-03-26 12:25:00,
2013-03-26 08:30:00,31.4,28.5,29.90,WNW,284,0.0,1.0,89,0.00,,,0.00,LWC V2.11 B50,2013-03-26 12:30:00,
2013-03-26 08:35:00,31.6,28.7,29.90,WNW,300,0.0,1.0,89,0.00,,,0.00,LWC V2.11 B50,2013-03-26 12:35:00,
2013-03-26 08:40:00,31.7,28.8,29.91,West,276,0.0,2.0,89,0.00,,,0.00,LWC V2.11 B50,2013-03-26 12:40:00,
2013-03-26 08:45:00,31.9,29.0,29.91,WNW,297,0.0,4.0,89,0.00,,,0.00,LWC V2.11 B50,2013-03-26 12:45:00,
2013-03-26 08:50:00,32.0,29.1,29.91,NW,321,0.0,2.0,89,0.00,,,0.00,LWC V2.11 B50,2013-03-26 12:50:00,
2013-03-26 08:55:00,32.2,29.3,29.91,West,276,4.0,5.0,89,0.00,,,0.00,LWC V2.11 B50,2013-03-26 12:55:00,
2013-03-26 09:00:00,32.3,29.4,29.91,West,271,1.0,2.0,89,0.00,,,0.00,LWC V2.11 B50,2013-03-26 13:00:00,
2013-03-26 09:05:00,32.3,29.2,29.91,West,276,2.0,3.0,88,0.00,,,0.00,LWC V2.11 B50,2013-03-26 13:05:00,
2013-03-26 09:10:00,32.4,29.2,29.91,WNW,287,4.0,4.0,88,0.00,,,0.00,LWC V2.11 B50,2013-03-26 13:10:00,
2013-03-26 09:15:00,32.5,29.3,29.91,WNW,296,1.0,4.0,88,0.00,,,0.00,LWC V2.11 B50,2013-03-26 13:15:00,
2013-03-26 09:20:00,32.6,29.4,29.91,WNW,291,0.0,3.0,88,0.00,,,0.00,LWC V2.11 B50,2013-03-26 13:20:00,
2013-03-26 09:25:00,32.8,29.6,29.91,NW,313,1.0,3.0,88,0.00,,,0.00,LWC V2.11 B50,2013-03-26 13:25:00,
2013-03-26 09:30:00,32.9,29.7,29.91,WNW,291,2.0,4.0,88,0.00,,,0.00,LWC V2.11 B50,2013-03-26 13:30:00,
2013-03-26 09:35:00,33.0,29.8,29.91,West,273,1.0,1.0,88,0.00,,,0.00,LWC V2.11 B50,2013-03-26 13:35:00,
2013-03-26 09:40:00,33.1,29.9,29.91,WNW,291,1.0,7.0,88,0.00,,,0.00,LWC V2.11 B50,2013-03-26 13:40:00,
2013-03-26 09:45:00,33.3,30.1,29.91,NW,318,1.0,2.0,88,0.00,,,0.00,LWC V2.11 B50,2013-03-26 13:45:00,
2013-03-26 09:50:00,33.5,30.1,29.91,West,281,1.0,3.0,87,0.00,,,0.00,LWC V2.11 B50,2013-03-26 13:50:00,
2013-03-26 09:55:00,33.8,30.3,29.91,WNW,287,0.0,3.0,87,0.00,,,0.00,LWC V2.11 B50,2013-03-26 13:55:00,
2013-03-26 10:00:00,34.0,30.5,29.91,NW,305,0.0,3.0,87,0.00,,,0.00,LWC V2.11 B50,2013-03-26 14:00:00,
2013-03-26 10:05:00,34.3,30.8,29.91,WNW,293,2.0,3.0,87,0.00,,,0.00,LWC V2.11 B50,2013-03-26 14:05:00,
2013-03-26 10:10:00,34.5,30.8,29.92,NW,320,1.0,4.0,86,0.00,,,0.00,LWC V2.11 B50,2013-03-26 14:10:00,
2013-03-26 10:15:00,34.5,30.8,29.92,WNW,295,4.0,4.0,86,0.00,,,0.00,LWC V2.11 B50,2013-03-26 14:15:00,
2013-03-26 10:20:00,34.6,30.9,29.92,NW,318,0.0,4.0,86,0.00,,,0.00,LWC V2.11 B50,2013-03-26 14:20:00,
2013-03-26 10:25:00,34.9,31.1,29.92,WNW,294,2.0,3.0,86,0.00,,,0.00,LWC V2.11 B50,2013-03-26 14:25:00,
2013-03-26 10:30:00,35.3,31.2,29.92,NNW,343,2.0,2.0,85,0.00,,,0.00,LWC V2.11 B50,2013-03-26 14:30:00,
2013-03-26 10:35:00,35.7,31.4,29.92,West,271,5.0,6.0,84,0.00,,,0.00,LWC V2.11 B50,2013-03-26 14:35:00,
2013-03-26 10:40:00,35.7,31.4,29.92,NW,306,0.0,7.0,84,0.00,,,0.00,LWC V2.11 B50,2013-03-26 14:40:00,
2013-03-26 10:45:00,36.1,31.4,29.92,West,271,1.0,5.0,83,0.00,,,0.00,LWC V2.11 B50,2013-03-26 14:45:00,
2013-03-26 10:50:00,36.5,31.8,29.92,NW,309,1.0,3.0,83,0.00,,,0.00,LWC V2.11 B50,2013-03-26 14:50:00,
2013-03-26 10:55:00,36.9,31.9,29.93,WNW,295,3.0,3.0,82,0.00,,,0.00,LWC V2.11 B50,2013-03-26 14:55:00,
2013-03-26 11:00:00,37.2,31.9,29.93,NW,312,2.0,6.0,81,0.00,,,0.00,LWC V2.11 B50,2013-03-26 15:00:00,
2013-03-26 11:05:00,37.2,31.9,29.93,WNW,300,1.0,4.0,81,0.00,,,0.00,LWC V2.11 B50,2013-03-26 15:05:00,
2013-03-26 11:10:00,37.3,32.0,29.93,North,352,3.0,5.0,81,0.00,,,0.00,LWC V2.11 B50,2013-03-26 15:10:00,
2013-03-26 11:15:00,37.4,31.8,29.94,NW,320,1.0,4.0,80,0.00,,,0.00,LWC V2.11 B50,2013-03-26 15:15:00,
2013-03-26 11:20:00,37.4,31.8,29.94,NW,305,1.0,7.0,80,0.00,,,0.01,LWC V2.11 B50,2013-03-26 15:20:00,
2013-03-26 11:25:00,37.4,31.8,29.94,NNW,332,5.0,7.0,80,0.00,,,0.01,LWC V2.11 B50,2013-03-26 15:25:00,
2013-03-26 11:30:00,37.3,31.7,29.94,WNW,298,2.0,6.0,80,0.00,,,0.01,LWC V2.11 B50,2013-03-26 15:30:00,
2013-03-26 11:35:00,37.7,32.1,29.94,WNW,300,2.0,7.0,80,0.00,,,0.01,LWC V2.11 B50,2013-03-26 15:35:00,
2013-03-26 11:40:00,37.9,32.0,29.94,NW,312,3.0,6.0,79,0.00,,,0.01,LWC V2.11 B50,2013-03-26 15:40:00,
2013-03-26 11:45:00,37.9,32.3,29.94,NW,308,2.0,5.0,80,0.00,,,0.01,LWC V2.11 B50,2013-03-26 15:45:00,
2013-03-26 11:50:00,38.0,32.1,29.95,WNW,302,4.0,8.0,79,0.00,,,0.01,LWC V2.11 B50,2013-03-26 15:50:00,
2013-03-26 11:55:00,38.1,32.2,29.95,NW,309,2.0,6.0,79,0.00,,,0.01,LWC V2.11 B50,2013-03-26 15:55:00,
2013-03-26 12:00:00,37.9,32.3,29.95,WNW,290,2.0,6.0,80,0.00,,,0.01,LWC V2.11 B50,2013-03-26 16:00:00,
2013-03-26 12:05:00,37.8,31.9,29.95,NW,322,3.0,10.0,79,0.00,,,0.01,LWC V2.11 B50,2013-03-26 16:05:00,
2013-03-26 12:10:00,37.9,32.0,29.95,NNW,332,4.0,8.0,79,0.00,,,0.02,LWC V2.11 B50,2013-03-26 16:10:00,
2013-03-26 12:15:00,37.9,32.0,29.95,NW,322,6.0,9.0,79,0.00,,,0.02,LWC V2.11 B50,2013-03-26 16:15:00,
2013-03-26 12:20:00,37.9,32.0,29.95,NW,304,5.0,7.0,79,0.00,,,0.02,LWC V2.11 B50,2013-03-26 16:20:00,
2013-03-26 12:25:00,38.0,31.8,29.95,WNW,302,2.0,6.0,78,0.00,,,0.02,LWC V2.11 B50,2013-03-26 16:25:00,
2013-03-26 12:30:00,38.3,32.1,29.95,NNW,347,4.0,7.0,78,0.00,,,0.02,LWC V2.11 B50,2013-03-26 16:30:00,
2013-03-26 12:35:00,38.4,31.8,29.95,NNW,329,3.0,4.0,77,0.00,,,0.02,LWC V2.11 B50,2013-03-26 16:35:00,
2013-03-26 12:40:00,38.8,31.9,29.95,NNW,329,6.0,6.0,76,0.00,,,0.02,LWC V2.11 B50,2013-03-26 16:40:00,
2013-03-26 12:45:00,38.9,31.7,29.95,NW,314,1.0,2.0,75,0.00,,,0.02,LWC V2.11 B50,2013-03-26 16:45:00,
2013-03-26 12:50:00,39.1,32.2,29.95,WNW,302,1.0,5.0,76,0.00,,,0.02,LWC V2.11 B50,2013-03-26 16:50:00,
2013-03-26 12:55:00,39.3,31.7,29.95,West,259,4.0,8.0,74,0.00,,,0.02,LWC V2.11 B50,2013-03-26 16:55:00,
2013-03-26 13:00:00,39.6,31.7,29.95,NW,318,2.0,6.0,73,0.00,,,0.02,LWC V2.11 B50,2013-03-26 17:00:00,
2013-03-26 13:05:00,39.7,31.8,29.95,NNW,329,4.0,6.0,73,0.00,,,0.02,LWC V2.11 B50,2013-03-26 17:05:00,
2013-03-26 13:10:00,39.9,31.6,29.95,NW,314,3.0,7.0,72,0.00,,,0.02,LWC V2.11 B50,2013-03-26 17:10:00,
2013-03-26 13:15:00,40.1,31.1,29.95,WNW,287,5.0,9.0,70,0.00,,,0.02,LWC V2.11 B50,2013-03-26 17:15:00,
2013-03-26 13:20:00,40.3,31.3,29.95,NW,316,3.0,7.0,70,0.00,,,0.02,LWC V2.11 B50,2013-03-26 17:20:00,
2013-03-26 13:25:00,40.6,31.2,29.95,WSW,256,3.0,6.0,69,0.00,,,0.02,LWC V2.11 B50,2013-03-26 17:25:00,
2013-03-26 13:30:00,40.7,31.3,29.95,NW,318,2.0,4.0,69,0.00,,,0.02,LWC V2.11 B50,2013-03-26 17:30:00,
2013-03-26 13:35:00,40.9,31.2,29.95,NNW,329,3.0,7.0,68,0.00,,,0.02,LWC V2.11 B50,2013-03-26 17:35:00,
2013-03-26 13:40:00,41.2,31.5,29.95,WNW,300,1.0,8.0,68,0.00,,,0.02,LWC V2.11 B50,2013-03-26 17:40:00,
2013-03-26 13:45:00,41.1,31.4,29.95,NW,315,5.0,8.0,68,0.00,,,0.02,LWC V2.11 B50,2013-03-26 17:45:00,
2013-03-26 13:50:00,40.8,31.1,29.95,NW,310,5.0,8.0,68,0.00,,,0.02,LWC V2.11 B50,2013-03-26 17:50:00,
2013-03-26 13:55:00,40.8,31.1,29.95,NW,307,3.0,7.0,68,0.00,,,0.02,LWC V2.11 B50,2013-03-26 17:55:00,
2013-03-26 14:00:00,40.8,31.1,29.95,NW,305,3.0,6.0,68,0.00,,,0.02,LWC V2.11 B50,2013-03-26 18:00:00,
2013-03-26 14:05:00,41.0,31.3,29.95,NNW,336,4.0,7.0,68,0.00,,,0.02,LWC V2.11 B50,2013-03-26 18:05:00,
2013-03-26 14:10:00,41.1,31.4,29.95,NW,323,5.0,5.0,68,0.00,,,0.02,LWC V2.11 B50,2013-03-26 18:10:00,
2013-03-26 14:15:00,41.4,31.3,29.95,NW,314,4.0,5.0,67,0.00,,,0.02,LWC V2.11 B50,2013-03-26 18:15:00,
2013-03-26 14:20:00,41.1,31.4,29.95,NW,315,6.0,6.0,68,0.00,,,0.02,LWC V2.11 B50,2013-03-26 18:20:00,
2013-03-26 14:25:00,40.9,31.2,29.95,WNW,291,4.0,7.0,68,0.00,,,0.02,LWC V2.11 B50,2013-03-26 18:25:00,
2013-03-26 14:30:00,41.0,31.3,29.95,NW,321,4.0,8.0,68,0.00,,,0.02,LWC V2.11 B50,2013-03-26 18:30:00,
2013-03-26 14:35:00,41.0,31.6,29.95,NNW,334,10.0,11.0,69,0.00,,,0.02,LWC V2.11 B50,2013-03-26 18:35:00,
2013-03-26 14:40:00,40.8,31.4,29.95,North,354,7.0,11.0,69,0.00,,,0.02,LWC V2.11 B50,2013-03-26 18:40:00,
2013-03-26 14:45:00,40.7,31.3,29.95,NW,319,5.0,10.0,69,0.00,,,0.02,LWC V2.11 B50,2013-03-26 18:45:00,
2013-03-26 14:50:00,40.5,31.1,29.95,NW,323,4.0,12.0,69,0.00,,,0.02,LWC V2.11 B50,2013-03-26 18:50:00,
2013-03-26 14:55:00,40.3,31.3,29.95,NNW,329,2.0,6.0,70,0.00,,,0.02,LWC V2.11 B50,2013-03-26 18:55:00,
2013-03-26 15:00:00,40.2,31.6,29.95,WNW,298,5.0,10.0,71,0.00,,,0.02,LWC V2.11 B50,2013-03-26 19:00:00,
2013-03-26 15:05:00,40.0,31.4,29.96,NW,306,6.0,8.0,71,0.00,,,0.02,LWC V2.11 B50,2013-03-26 19:05:00,
2013-03-26 15:10:00,40.1,31.5,29.96,WNW,298,4.0,7.0,71,0.00,,,0.02,LWC V2.11 B50,2013-03-26 19:10:00,
2013-03-26 15:15:00,40.1,31.1,29.96,NW,307,2.0,11.0,70,0.00,,,0.02,LWC V2.11 B50,2013-03-26 19:15:00,
2013-03-26 15:20:00,40.1,31.5,29.96,NW,318,3.0,5.0,71,0.00,,,0.02,LWC V2.11 B50,2013-03-26 19:20:00,
2013-03-26 15:25:00,40.1,31.8,29.96,West,280,9.0,12.0,72,0.00,,,0.02,LWC V2.11 B50,2013-03-26 19:25:00,
2013-03-26 15:30:00,39.9,31.3,29.96,NW,312,4.0,10.0,71,0.00,,,0.02,LWC V2.11 B50,2013-03-26 19:30:00,
2013-03-26 15:35:00,39.8,31.5,29.96,NW,314,2.0,10.0,72,0.00,,,0.02,LWC V2.11 B50,2013-03-26 19:35:00,
2013-03-26 15:40:00,40.2,31.9,29.96,NNE,29,4.0,4.0,72,0.00,,,0.02,LWC V2.11 B50,2013-03-26 19:40:00,
2013-03-26 15:45:00,40.0,31.4,29.96,NW,311,3.0,11.0,71,0.00,,,0.02,LWC V2.11 B50,2013-03-26 19:45:00,
2013-03-26 15:50:00,39.5,31.6,29.96,NW,325,2.0,13.0,73,0.00,,,0.02,LWC V2.11 B50,2013-03-26 19:50:00,
2013-03-26 15:55:00,39.1,31.2,29.96,WNW,301,5.0,13.0,73,0.00,,,0.02,LWC V2.11 B50,2013-03-26 19:55:00,
2013-03-26 16:00:00,38.9,31.3,29.96,NW,318,3.0,9.0,74,0.00,,,0.02,LWC V2.11 B50,2013-03-26 20:00:00,
2013-03-26 16:05:00,38.6,31.4,29.97,NW,305,6.0,12.0,75,0.00,,,0.02,LWC V2.11 B50,2013-03-26 20:05:00,
2013-03-26 16:10:00,38.7,31.5,29.97,NW,305,4.0,5.0,75,0.00,,,0.02,LWC V2.11 B50,2013-03-26 20:10:00,
2013-03-26 16:15:00,38.5,31.3,29.97,NW,309,7.0,7.0,75,0.00,,,0.02,LWC V2.11 B50,2013-03-26 20:15:00,
2013-03-26 16:20:00,38.4,31.2,29.97,NW,309,4.0,6.0,75,0.00,,,0.02,LWC V2.11 B50,2013-03-26 20:20:00,
2013-03-26 16:25:00,38.1,31.2,29.97,NW,309,4.0,5.0,76,0.00,,,0.02,LWC V2.11 B50,2013-03-26 20:25:00,
2013-03-26 16:30:00,38.0,31.1,29.97,West,278,4.0,5.0,76,0.00,,,0.02,LWC V2.11 B50,2013-03-26 20:30:00,
2013-03-26 16:35:00,38.0,31.4,29.97,NW,305,1.0,4.0,77,0.00,,,0.02,LWC V2.11 B50,2013-03-26 20:35:00,
2013-03-26 16:40:00,38.0,31.1,29.97,NW,317,5.0,7.0,76,0.00,,,0.02,LWC V2.11 B50,2013-03-26 20:40:00,
2013-03-26 16:45:00,37.8,31.2,29.97,NW,305,2.0,8.0,77,0.00,,,0.02,LWC V2.11 B50,2013-03-26 20:45:00,
2013-03-26 16:50:00,37.7,31.2,29.97,NW,315,2.0,8.0,77,0.00,,,0.02,LWC V2.11 B50,2013-03-26 20:50:00,
2013-03-26 16:55:00,37.7,31.2,29.97,NW,309,2.0,7.0,77,0.00,,,0.02,LWC V2.11 B50,2013-03-26 20:55:00,
2013-03-26 17:00:00,37.5,31.3,29.97,WNW,295,3.0,8.0,78,0.00,,,0.02,LWC V2.11 B50,2013-03-26 21:00:00,
2013-03-26 17:05:00,37.5,31.6,29.97,NNW,339,7.0,7.0,79,0.00,,,0.02,LWC V2.11 B50,2013-03-26 21:05:00,
2013-03-26 17:10:00,37.4,31.2,29.98,West,276,2.0,6.0,78,0.00,,,0.02,LWC V2.11 B50,2013-03-26 21:10:00,
2013-03-26 17:15:00,37.4,31.5,29.98,NNW,335,2.0,6.0,79,0.00,,,0.02,LWC V2.11 B50,2013-03-26 21:15:00,
2013-03-26 17:20:00,37.3,31.4,29.98,WNW,294,1.0,11.0,79,0.00,,,0.02,LWC V2.11 B50,2013-03-26 21:20:00,
2013-03-26 17:25:00,37.4,31.5,29.97,WNW,291,7.0,7.0,79,0.00,,,0.02,LWC V2.11 B50,2013-03-26 21:25:00,
2013-03-26 17:30:00,37.3,31.4,29.98,WNW,288,3.0,9.0,79,0.00,,,0.02,LWC V2.11 B50,2013-03-26 21:30:00,
2013-03-26 17:35:00,37.2,31.3,29.98,NW,312,3.0,9.0,79,0.00,,,0.02,LWC V2.11 B50,2013-03-26 21:35:00,
2013-03-26 17:40:00,37.1,31.5,29.98,WNW,302,3.0,5.0,80,0.00,,,0.02,LWC V2.11 B50,2013-03-26 21:40:00,
2013-03-26 17:45:00,37.0,31.4,29.98,NNW,332,2.0,6.0,80,0.00,,,0.02,LWC V2.11 B50,2013-03-26 21:45:00,
2013-03-26 17:50:00,37.0,31.4,29.98,NW,312,2.0,10.0,80,0.00,,,0.02,LWC V2.11 B50,2013-03-26 21:50:00,
2013-03-26 17:55:00,37.0,31.4,29.98,NW,314,2.0,5.0,80,0.00,,,0.02,LWC V2.11 B50,2013-03-26 21:55:00,
2013-03-26 18:00:00,37.0,31.4,29.98,WNW,294,3.0,9.0,80,0.00,,,0.02,LWC V2.11 B50,2013-03-26 22:00:00,
2013-03-26 18:05:00,36.9,31.3,29.98,WNW,294,5.0,10.0,80,0.00,,,0.02,LWC V2.11 B50,2013-03-26 22:05:00,
2013-03-26 18:10:00,36.9,31.3,29.98,WNW,284,2.0,5.0,80,0.00,,,0.02,LWC V2.11 B50,2013-03-26 22:10:00,
2013-03-26 18:15:00,36.8,31.2,29.99,WNW,297,1.0,5.0,80,0.00,,,0.02,LWC V2.11 B50,2013-03-26 22:15:00,
2013-03-26 18:20:00,36.8,31.2,29.99,NW,321,1.0,2.0,80,0.00,,,0.02,LWC V2.11 B50,2013-03-26 22:20:00,
2013-03-26 18:25:00,36.7,31.1,29.99,WNW,287,2.0,3.0,80,0.00,,,0.02,LWC V2.11 B50,2013-03-26 22:25:00,
2013-03-26 18:30:00,36.6,31.0,29.99,NW,324,5.0,5.0,80,0.00,,,0.02,LWC V2.11 B50,2013-03-26 22:30:00,
2013-03-26 18:35:00,36.5,31.2,29.99,NW,305,2.0,2.0,81,0.00,,,0.02,LWC V2.11 B50,2013-03-26 22:35:00,
2013-03-26 18:40:00,36.4,31.1,29.99,WNW,290,0.0,5.0,81,0.00,,,0.02,LWC V2.11 B50,2013-03-26 22:40:00,
2013-03-26 18:45:00,36.2,31.2,30.00,NNW,332,2.0,3.0,82,0.00,,,0.02,LWC V2.11 B50,2013-03-26 22:45:00,
2013-03-26 18:50:00,36.0,31.0,30.00,NW,324,1.0,4.0,82,0.00,,,0.02,LWC V2.11 B50,2013-03-26 22:50:00,
2013-03-26 18:55:00,36.0,31.0,30.00,NW,312,0.0,6.0,82,0.00,,,0.02,LWC V2.11 B50,2013-03-26 22:55:00,
2013-03-26 19:00:00,35.9,31.0,30.00,WNW,288,0.0,3.0,82,0.00,,,0.02,LWC V2.11 B50,2013-03-26 23:00:00,
2013-03-26 19:05:00,35.8,31.2,30.00,WNW,288,5.0,8.0,83,0.00,,,0.02,LWC V2.11 B50,2013-03-26 23:05:00,
2013-03-26 19:10:00,35.7,31.1,30.00,WNW,289,0.0,6.0,83,0.00,,,0.02,LWC V2.11 B50,2013-03-26 23:10:00,
2013-03-26 19:15:00,35.6,31.0,30.01,NW,305,2.0,2.0,83,0.00,,,0.02,LWC V2.11 B50,2013-03-26 23:15:00,
2013-03-26 19:20:00,35.6,31.0,30.01,WNW,288,0.0,1.0,83,0.00,,,0.02,LWC V2.11 B50,2013-03-26 23:20:00,
2013-03-26 19:25:00,35.5,31.2,30.01,WNW,284,2.0,4.0,84,0.00,,,0.02,LWC V2.11 B50,2013-03-26 23:25:00,
2013-03-26 19:30:00,35.5,31.2,30.01,NW,321,1.0,7.0,84,0.00,,,0.02,LWC V2.11 B50,2013-03-26 23:30:00,
2013-03-26 19:35:00,35.4,31.1,30.01,NW,312,1.0,6.0,84,0.00,,,0.02,LWC V2.11 B50,2013-03-26 23:35:00,
2013-03-26 19:40:00,35.4,31.1,30.01,NW,305,2.0,3.0,84,0.00,,,0.02,LWC V2.11 B50,2013-03-26 23:40:00,
2013-03-26 19:46:00,35.3,31.0,30.01,NW,309,2.0,3.0,84,0.00,,,0.02,LWC V2.11 B50,2013-03-26 23:46:00,
2013-03-26 19:51:00,35.2,30.9,30.01,WNW,288,0.0,5.0,84,0.00,,,0.02,LWC V2.11 B50,2013-03-26 23:51:00,
2013-03-26 19:57:00,35.2,30.9,30.01,West,276,2.0,5.0,84,0.00,,,0.02,LWC V2.11 B50,2013-03-26 23:57:00,
2013-03-26 20:02:00,35.1,31.1,30.01,NW,307,2.0,7.0,85,0.00,,,0.02,LWC V2.11 B50,2013-03-27 00:02:00,
2013-03-26 20:07:00,35.0,31.0,30.01,NW,315,2.0,2.0,85,0.00,,,0.02,LWC V2.11 B50,2013-03-27 00:07:00,
2013-03-26 20:12:00,34.8,31.0,30.01,West,273,1.0,3.0,86,0.00,,,0.02,LWC V2.11 B50,2013-03-27 00:12:00,
2013-03-26 20:17:00,34.7,30.9,30.02,WNW,299,1.0,3.0,86,0.00,,,0.02,LWC V2.11 B50,2013-03-27 00:17:00,
2013-03-26 20:22:00,34.7,30.9,30.02,WNW,284,4.0,4.0,86,0.00,,,0.02,LWC V2.11 B50,2013-03-27 00:22:00,
2013-03-26 20:27:00,34.6,31.1,30.02,WNW,290,1.0,4.0,87,0.00,,,0.02,LWC V2.11 B50,2013-03-27 00:27:00,
2013-03-26 20:32:00,34.5,31.0,30.02,NW,316,0.0,1.0,87,0.00,,,0.02,LWC V2.11 B50,2013-03-27 00:32:00,
2013-03-26 20:37:00,34.5,31.0,30.02,WNW,283,0.0,5.0,87,0.00,,,0.02,LWC V2.11 B50,2013-03-27 00:37:00,
2013-03-26 20:42:00,34.4,30.9,30.02,West,274,2.0,5.0,87,0.00,,,0.02,LWC V2.11 B50,2013-03-27 00:42:00,
2013-03-26 20:47:00,34.4,30.9,30.02,NW,309,1.0,6.0,87,0.00,,,0.02,LWC V2.11 B50,2013-03-27 00:47:00,
2013-03-26 20:52:00,34.3,30.8,30.03,WNW,301,1.0,1.0,87,0.00,,,0.02,LWC V2.11 B50,2013-03-27 00:52:00,
2013-03-26 20:57:00,34.3,30.8,30.03,WNW,291,0.0,8.0,87,0.00,,,0.02,LWC V2.11 B50,2013-03-27 00:57:00,
2013-03-26 21:02:00,34.3,30.8,30.03,West,281,2.0,5.0,87,0.00,,,0.02,LWC V2.11 B50,2013-03-27 01:02:00,
2013-03-26 21:07:00,34.3,30.8,30.03,WNW,289,2.0,5.0,87,0.00,,,0.02,LWC V2.11 B50,2013-03-27 01:07:00,
2013-03-26 21:12:00,34.3,30.8,30.03,WSW,252,4.0,4.0,87,0.00,,,0.02,LWC V2.11 B50,2013-03-27 01:12:00,
2013-03-26 21:17:00,34.3,30.8,30.03,NW,318,5.0,5.0,87,0.00,,,0.02,LWC V2.11 B50,2013-03-27 01:17:00,
2013-03-26 21:22:00,34.2,30.7,30.04,WNW,296,1.0,3.0,87,0.00,,,0.02,LWC V2.11 B50,2013-03-27 01:22:00,
2013-03-26 21:27:00,34.1,30.6,30.04,NW,315,0.0,6.0,87,0.00,,,0.02,LWC V2.11 B50,2013-03-27 01:27:00,
2013-03-26 21:32:00,34.1,30.6,30.04,WNW,294,0.0,3.0,87,0.00,,,0.02,LWC V2.11 B50,2013-03-27 01:32:00,
2013-03-26 21:37:00,34.0,30.5,30.04,NW,312,0.0,5.0,87,0.00,,,0.02,LWC V2.11 B50,2013-03-27 01:37:00,
2013-03-26 21:42:00,33.9,30.4,30.04,NW,321,0.0,2.0,87,0.00,,,0.02,LWC V2.11 B50,2013-03-27 01:42:00,
2013-03-26 21:47:00,33.8,30.3,30.05,West,273,4.0,4.0,87,0.00,,,0.02,LWC V2.11 B50,2013-03-27 01:47:00,
2013-03-26 21:52:00,33.7,30.2,30.05,WNW,292,0.0,5.0,87,0.00,,,0.02,LWC V2.11 B50,2013-03-27 01:52:00,
2013-03-26 21:57:00,33.6,30.2,30.05,West,270,3.0,3.0,87,0.00,,,0.02,LWC V2.11 B50,2013-03-27 01:57:00,
2013-03-26 22:02:00,33.5,30.1,30.05,West,277,0.0,0.0,87,0.00,,,0.02,LWC V2.11 B50,2013-03-27 02:02:00,
2013-03-26 22:08:00,33.4,30.2,30.05,WNW,294,0.0,0.0,88,0.00,,,0.02,LWC V2.11 B50,2013-03-27 02:08:00,
2013-03-26 22:13:00,33.3,30.1,30.05,West,266,1.0,1.0,88,0.00,,,0.02,LWC V2.11 B50,2013-03-27 02:13:00,
2013-03-26 22:18:00,33.2,30.0,30.05,WNW,290,0.0,1.0,88,0.00,,,0.02,LWC V2.11 B50,2013-03-27 02:18:00,
2013-03-26 22:23:00,33.2,29.8,30.05,WNW,285,2.0,2.0,87,0.00,,,0.02,LWC V2.11 B50,2013-03-27 02:23:00,
2013-03-26 22:28:00,33.2,29.8,30.05,WSW,248,3.0,3.0,87,0.00,,,0.02,LWC V2.11 B50,2013-03-27 02:28:00,
2013-03-26 22:33:00,33.2,29.8,30.05,WNW,301,1.0,5.0,87,0.00,,,0.02,LWC V2.11 B50,2013-03-27 02:33:00,
2013-03-26 22:38:00,33.2,29.5,30.05,WNW,290,2.0,3.0,86,0.00,,,0.02,LWC V2.11 B50,2013-03-27 02:38:00,
2013-03-26 22:43:00,33.2,29.8,30.05,NW,308,1.0,4.0,87,0.00,,,0.02,LWC V2.11 B50,2013-03-27 02:43:00,
2013-03-26 22:48:00,33.1,29.7,30.05,NW,318,1.0,3.0,87,0.00,,,0.02,LWC V2.11 B50,2013-03-27 02:48:00,
2013-03-26 22:53:00,32.9,29.5,30.05,WNW,293,0.0,0.0,87,0.00,,,0.02,LWC V2.11 B50,2013-03-27 02:53:00,
2013-03-26 22:58:00,32.9,29.7,30.05,NW,305,0.0,0.0,88,0.00,,,0.02,LWC V2.11 B50,2013-03-27 02:58:00,
2013-03-26 23:03:00,32.9,29.7,30.06,NW,308,0.0,1.0,88,0.00,,,0.02,LWC V2.11 B50,2013-03-27 03:03:00,
2013-03-26 23:08:00,33.0,29.8,30.05,WNW,288,1.0,1.0,88,0.00,,,0.02,LWC V2.11 B50,2013-03-27 03:08:00,
2013-03-26 23:13:00,33.0,29.8,30.05,West,262,0.0,5.0,88,0.00,,,0.02,LWC V2.11 B50,2013-03-27 03:13:00,
2013-03-26 23:18:00,33.1,29.9,30.05,WNW,285,0.0,3.0,88,0.00,,,0.02,LWC V2.11 B50,2013-03-27 03:18:00,
2013-03-26 23:23:00,33.1,29.9,30.05,WSW,243,2.0,6.0,88,0.00,,,0.02,LWC V2.11 B50,2013-03-27 03:23:00,
2013-03-26 23:28:00,33.1,29.9,30.05,West,274,1.0,2.0,88,0.00,,,0.02,LWC V2.11 B50,2013-03-27 03:28:00,
2013-03-26 23:33:00,33.1,29.9,30.05,WNW,297,1.0,3.0,88,0.00,,,0.02,LWC V2.11 B50,2013-03-27 03:33:00,
2013-03-26 23:38:00,33.1,29.9,30.05,NW,312,0.0,1.0,88,0.00,,,0.02,LWC V2.11 B50,2013-03-27 03:38:00,
2013-03-26 23:43:00,33.2,30.0,30.05,WNW,301,1.0,2.0,88,0.00,,,0.02,LWC V2.11 B50,2013-03-27 03:43:00,
2013-03-26 23:48:00,33.1,29.9,30.05,West,280,2.0,3.0,88,0.00,,,0.02,LWC V2.11 B50,2013-03-27 03:48:00,
2013-03-26 23:53:00,33.1,29.9,30.05,WNW,288,0.0,3.0,88,0.00,,,0.02,LWC V2.11 B50,2013-03-27 03:53:00,
2013-03-26 23:58:00,33.1,29.9,30.05,NW,308,0.0,3.0,88,0.00,,,0.02,LWC V2.11 B50,2013-03-27 03:58:00,